| time (UTC) | temp F | wind direction | speed knots | gust knots | rain 1hr in | rain 24hr in | rain mn in | humidity % | barometer mb |
| 20260510150024 | 49 | 197 | 1.7 | 4.3 | 0.00 | 0.00 | 0.00 | 95 | 1012.4 |
| 20260510144533 | 50 | 360 | 1.7 | 6.1 | 0.00 | 0.00 | 0.00 | 94 | 1012.2 |
| 20260510143020 | 49 | 128 | 2.6 | 6.1 | 0.00 | 0.00 | 0.00 | 94 | 1011.4 |
| 20260510141517 | 50 | 150 | 1.7 | 5.2 | 0.00 | 0.00 | 0.00 | 93 | 1012.0 |
| 20260510140015 | 49 | 245 | 1.7 | 7.0 | 0.00 | 0.00 | 0.00 | 93 | 1011.9 |
| 20260510134515 | 49 | 228 | 1.7 | 9.6 | 0.00 | 0.00 | 0.00 | 94 | 1011.7 |
| 20260510133009 | 49 | 188 | 1.7 | 7.0 | 0.00 | 0.00 | 0.00 | 94 | 1011.4 |
| 20260510131517 | 49 | 185 | 3.5 | 7.8 | 0.00 | 0.00 | 0.00 | 94 | 1011.7 |
| 20260510130015 | 49 | 205 | 0.9 | 5.2 | 0.00 | 0.00 | 0.00 | 93 | 1011.8 |
| 20260510124505 | 49 | 159 | 0.9 | 7.0 | 0.00 | 0.00 | 0.00 | 94 | 1011.4 |
| 20260510123005 | 49 | 171 | 1.7 | 7.8 | 0.00 | 0.00 | 0.00 | 94 | 1011.6 |
| 20260510121503 | 49 | 209 | 2.6 | 6.1 | 0.00 | 0.00 | 0.00 | 94 | 1011.8 |
| 20260510120004 | 49 | 213 | 3.5 | 7.8 | 0.00 | 0.00 | 0.00 | 95 | 1011.7 |
| 20260510120001 | 49 | 217 | 3.5 | 7.8 | 0.00 | 0.00 | 0.00 | 95 | 1011.7 |
| 20260510114558 | 48 | 209 | 1.7 | 7.8 | 0.00 | 0.00 | 0.00 | 95 | 1011.5 |
| 20260510113057 | 48 | 197 | 2.6 | 8.7 | 0.00 | 0.00 | 0.00 | 94 | 1011.4 |
| 20260510111606 | 48 | 186 | 2.6 | 9.6 | 0.00 | 0.00 | 0.00 | 95 | 1011.4 |
| 20260510110053 | 47 | 154 | 1.7 | 7.0 | 0.00 | 0.00 | 0.00 | 96 | 1010.8 |
| 20260510104609 | 47 | 225 | 2.6 | 7.0 | 0.00 | 0.00 | 0.00 | 96 | 1011.0 |
| 20260510103049 | 47 | 152 | 2.6 | 6.1 | 0.00 | 0.00 | 0.00 | 96 | 1010.8 |
| 20260510101546 | 46 | 219 | 1.7 | 9.6 | 0.00 | 0.00 | 0.00 | 96 | 1010.4 |
| 20260510100045 | 47 | 189 | 3.5 | 7.8 | 0.00 | 0.00 | 0.00 | 96 | 1010.5 |
| 20260510094524 | 47 | 177 | 1.7 | 5.2 | 0.00 | 0.00 | 0.00 | 95 | 1010.5 |
| 20260510093013 | 47 | 138 | 1.7 | 4.3 | 0.00 | 0.00 | 0.00 | 95 | 1010.1 |
| 20260510091519 | 47 | 121 | 2.6 | 9.6 | 0.00 | 0.00 | 0.00 | 96 | 1010.0 |
| 20260510090009 | 47 | 198 | 0.9 | 5.2 | 0.00 | 0.00 | 0.00 | 95 | 1009.6 |
| 20260510084510 | 47 | 142 | 0.9 | 7.0 | 0.00 | 0.00 | 0.00 | 96 | 1009.8 |
| 20260510083007 | 47 | 192 | 1.7 | 8.7 | 0.00 | 0.00 | 0.00 | 96 | 1009.4 |
| 20260510081503 | 47 | 148 | 1.7 | 4.3 | 0.00 | 0.00 | 0.00 | 96 | 1009.7 |
| 20260510080005 | 47 | 191 | 0.0 | 4.3 | 0.00 | 0.00 | 0.00 | 96 | 1010.3 |
| 20260510074604 | 47 | 209 | 0.0 | 6.1 | 0.00 | 0.00 | 0.00 | 95 | 1010.4 |
| 20260510073059 | 47 | 331 | 0.9 | 3.5 | 0.00 | 0.00 | 0.00 | 94 | 1010.5 |
| 20260510071556 | 48 | 247 | 1.7 | 8.7 | 0.00 | 0.00 | 0.00 | 93 | 1010.4 |
| 20260510070057 | 48 | 142 | 1.7 | 8.7 | 0.00 | 0.00 | 0.00 | 91 | 1010.4 |
| 20260510064551 | 49 | 258 | 1.7 | 7.8 | 0.00 | 0.00 | 0.00 | 87 | 1010.5 |
| 20260510063054 | 49 | 132 | 0.9 | 7.0 | 0.00 | 0.00 | 0.00 | 86 | 1010.3 |
| 20260510061528 | 49 | 213 | 2.6 | 8.7 | 0.00 | 0.00 | 0.00 | 86 | 1010.1 |
| 20260510060039 | 49 | 136 | 4.3 | 13.9 | 0.00 | 0.00 | 0.00 | 86 | 1010.0 |
| 20260510054513 | 49 | 220 | 2.6 | 7.0 | 0.00 | 0.00 | 0.00 | 86 | 1010.3 |
| 20260510053011 | 49 | 223 | 0.0 | 7.0 | 0.00 | 0.00 | 0.00 | 86 | 1010.5 |
| 20260510051509 | 49 | 192 | 0.9 | 7.8 | 0.00 | 0.00 | 0.00 | 85 | 1010.5 |
| 20260510050007 | 49 | 215 | 2.6 | 7.8 | 0.00 | 0.00 | 0.00 | 85 | 1010.5 |
| 20260510044504 | 49 | 159 | 2.6 | 7.0 | 0.00 | 0.00 | 0.00 | 85 | 1010.3 |
| 20260510043005 | 49 | 187 | 2.6 | 7.8 | 0.00 | 0.00 | 0.00 | 84 | 1010.4 |
| 20260510041506 | 49 | 281 | 3.5 | 12.2 | 0.00 | 0.00 | 0.00 | 84 | 1010.0 |
| 20260510040101 | 49 | 171 | 2.6 | 8.7 | 0.00 | 0.00 | 0.00 | 84 | 1009.7 |
| 20260510034558 | 49 | 167 | 4.3 | 8.7 | 0.00 | 0.00 | 0.00 | 85 | 1010.1 |
| 20260510033057 | 49 | 196 | 1.7 | 6.1 | 0.00 | 0.00 | 0.00 | 85 | 1010.3 |
| 20260510031626 | 49 | 227 | 1.7 | 5.2 | 0.00 | 0.00 | 0.00 | 85 | 1010.4 |
| 20260510030055 | 49 | 172 | 3.5 | 8.7 | 0.00 | 0.00 | 0.00 | 85 | 1010.3 |
| 20260510024530 | 49 | 185 | 2.6 | 9.6 | 0.00 | 0.00 | 0.00 | 86 | 1010.4 |
| 20260510023041 | 49 | 151 | 0.9 | 12.2 | 0.00 | 0.00 | 0.00 | 86 | 1010.5 |
| 20260510021553 | 49 | 211 | 3.5 | 8.7 | 0.00 | 0.00 | 0.00 | 86 | 1010.5 |
| 20260510020053 | 49 | 159 | 0.9 | 11.3 | 0.00 | 0.00 | 0.00 | 87 | 1010.7 |
| 20260510014550 | 49 | 184 | 1.7 | 9.6 | 0.00 | 0.00 | 0.00 | 87 | 1010.6 |
| 20260510013049 | 49 | 163 | 2.6 | 9.6 | 0.00 | 0.00 | 0.00 | 87 | 1010.8 |
| 20260510011606 | 49 | 100 | 3.5 | 7.0 | 0.00 | 0.00 | 0.00 | 86 | 1010.8 |
| 20260510004518 | 48 | 205 | 2.6 | 9.6 | 0.00 | 0.00 | 0.00 | 86 | 1010.9 |
| 20260510003018 | 48 | 200 | 0.9 | 5.2 | 0.00 | 0.00 | 0.00 | 85 | 1010.9 |
| 20260510001516 | 48 | 131 | 0.9 | 6.1 | 0.00 | 0.00 | 0.00 | 85 | 1010.8 |
| 20260510000014 | 48 | 221 | 0.9 | 6.1 | 0.00 | 0.00 | 0.00 | 85 | 1010.7 |
| 20260509234514 | 48 | 175 | 1.7 | 7.0 | 0.00 | 0.00 | 0.00 | 85 | 1010.6 |
| 20260509233013 | 48 | 128 | 2.6 | 5.2 | 0.00 | 0.00 | 0.00 | 84 | 1010.5 |
| 20260509231512 | 48 | 146 | 1.7 | 14.8 | 0.00 | 0.00 | 0.00 | 86 | 1010.5 |
| 20260509230010 | 47 | 168 | 3.5 | 12.2 | 0.00 | 0.00 | 0.00 | 86 | 1010.7 |
| 20260509224509 | 46 | 191 | 2.6 | 7.8 | 0.00 | 0.00 | 0.00 | 89 | 1010.7 |
| 20260509223007 | 46 | 151 | 0.0 | 2.6 | 0.00 | 0.00 | 0.00 | 90 | 1010.9 |
| 20260509221507 | 46 | 150 | 1.7 | 5.2 | 0.00 | 0.00 | 0.00 | 90 | 1011.0 |
| 20260509220004 | 46 | 182 | 0.9 | 2.6 | 0.00 | 0.00 | 0.00 | 90 | 1011.1 |
| 20260509214502 | 46 | 213 | 1.7 | 5.2 | 0.00 | 0.00 | 0.00 | 89 | 1011.1 |
| 20260509213117 | 47 | 193 | 3.5 | 8.7 | 0.00 | 0.00 | 0.00 | 86 | 1011.2 |
| 20260509211615 | 47 | 159 | 2.6 | 7.0 | 0.00 | 0.00 | 0.00 | 84 | 1011.4 |
| 20260509210101 | 47 | 184 | 1.7 | 8.7 | 0.00 | 0.00 | 0.00 | 84 | 1011.2 |
| 20260509204603 | 46 | 165 | 3.5 | 9.6 | 0.00 | 0.00 | 0.00 | 85 | 1011.4 |
| 20260509203100 | 47 | 172 | 1.7 | 10.4 | 0.00 | 0.00 | 0.00 | 84 | 1011.4 |
| 20260509201556 | 46 | 164 | 3.5 | 10.4 | 0.00 | 0.00 | 0.00 | 86 | 1011.4 |
| 20260509200026 | 45 | 157 | 3.5 | 11.3 | 0.00 | 0.00 | 0.00 | 87 | 1011.4 |
| 20260509194621 | 45 | 148 | 3.5 | 11.3 | 0.00 | 0.00 | 0.00 | 87 | 1011.5 |
| 20260509193018 | 46 | 66 | 2.6 | 8.7 | 0.00 | 0.00 | 0.00 | 85 | 1011.8 |
| 20260509191519 | 46 | 150 | 1.7 | 6.1 | 0.00 | 0.00 | 0.00 | 83 | 1011.7 |
| 20260509190021 | 47 | 180 | 1.7 | 5.2 | 0.00 | 0.00 | 0.00 | 82 | 1011.9 |
| 20260509184513 | 47 | 170 | 0.9 | 8.7 | 0.00 | 0.00 | 0.00 | 81 | 1012.0 |
| 20260509183014 | 47 | 182 | 1.7 | 6.1 | 0.00 | 0.00 | 0.00 | 79 | 1012.2 |
| 20260509181508 | 47 | 224 | 1.7 | 6.1 | 0.00 | 0.00 | 0.00 | 77 | 1012.3 |
| 20260509180007 | 47 | 192 | 2.6 | 6.1 | 0.00 | 0.00 | 0.00 | 76 | 1012.4 |
| 20260509174508 | 47 | 220 | 0.9 | 4.3 | 0.00 | 0.00 | 0.00 | 79 | 1012.5 |
| 20260509173002 | 46 | 158 | 0.0 | 7.0 | 0.00 | 0.00 | 0.00 | 79 | 1012.8 |
| 20260509171501 | 47 | 189 | 1.7 | 5.2 | 0.00 | 0.00 | 0.00 | 74 | 1012.8 |
| 20260509170100 | 48 | 146 | 0.9 | 6.1 | 0.00 | 0.00 | 0.00 | 71 | 1012.8 |
| 20260509164600 | 48 | 145 | 2.6 | 4.3 | 0.00 | 0.00 | 0.00 | 64 | 1013.0 |
| 20260509163036 | 50 | 157 | 2.6 | 7.0 | 0.00 | 0.00 | 0.00 | 55 | 1012.9 |
| 20260509161526 | 50 | 360 | 1.7 | 5.2 | 0.00 | 0.00 | 0.00 | 53 | 1013.0 |
| 20260509160021 | 51 | 360 | 0.9 | 4.3 | 0.00 | 0.00 | 0.00 | 47 | 1013.2 |
| 20260509154519 | 51 | 360 | 0.9 | 5.2 | 0.00 | 0.00 | 0.00 | 46 | 1013.3 |
| 20260509153021 | 52 | 360 | 1.7 | 8.7 | 0.00 | 0.00 | 0.00 | 44 | 1013.4 |
| 20260509151517 | 51 | 360 | 2.6 | 7.8 | 0.00 | 0.00 | 0.00 | 43 | 1013.6 |